Location: Unspecified
(44.0704°N, 88.6889°W)
Time: 10:45:47
(UTC+02:00)

Vanguard 2 Rocket - Pass Details

Date: 10 August 2020
Orbit: 554 x 3326 km, 32.9° (Epoch: 22 September)

Event Time Altitude Azimuth Distance (km) Brightness Sun altitude
Rises 04:00:04 0° 256° (WSW) 4,094 11.0 -9.2°
Reaches altitude 10° 04:02:30 10° 250° (WSW) 3,410 10.4 -9.6°
Maximum altitude 04:11:06 47° 180° (S) 2,437 8.8 -10.9°
Enters shadow 04:24:02 14° 115° (ESE) 5,211 10.1 -12.8°
